#timestamp,LO_Frequency,Hit,StdDev 
1521370815.6,286047002.5,N
1521370835.5,286047000.0,N
1521370855.3,286046999.9,N
1521370875.1,286047000.3,N
1521370895.9,286047000.1,N
1521370915.7,286046998.9,N
1521370935.6,286047001.0,N
1521370955.4,286047000.2,N
1521370975.2,286047002.7,N
1521370995.1,286047002.3,N
1521370996.0,286047002.3,N
1521371015.8,286047000.1,N
1521371035.6,286047002.4,N
1521371055.5,286047004.1,N
1521371075.3,286047003.2,N
1521371095.2,286047004.4,N
1521371115.9,286047004.0,N
1521371135.7,286047002.5,N
1521371155.6,286047002.0,N
1521371175.4,286047001.4,N
1521371195.3,286047001.5,N
1521371215.1,286047001.9,N
1521371216.0,286047001.9,N
1521371235.8,286047001.4,N
1521371255.7,286047003.6,N
1521371275.5,286047002.8,N
1521371295.4,286047000.7,N
1521371315.2,286047000.4,N
1521371335.0,286047002.8,N
1521371335.9,286047002.8,N
1521371355.8,286046999.9,N
1521371375.6,286047002.4,N
1521371395.5,286047002.4,N
1521371415.3,286046999.7,N
1521371435.1,286046998.8,N
1521371455.9,286046996.5,N
1521371475.7,286046999.1,N
1521371495.5,286047000.8,N
1521371515.4,286047000.8,N
1521371535.2,286047002.7,N
1521371555.1,286047002.8,N
1521371556.0,286047002.8,N
1521371575.8,286046999.7,N
1521371595.6,286047002.5,N
1521371615.5,286047002.4,N
1521371635.3,286047001.2,N
1521371655.1,286046998.4,N
1521371675.9,286046998.4,N
1521371695.7,286046998.6,N
1521371715.6,286046998.5,N
1521371735.4,286047000.0,N
1521371755.2,286047001.8,N
1521371775.1,286047003.6,N
1521371776.0,286047003.6,N
1521371795.8,286047002.2,N
1521371815.6,286047002.3,N
1521371835.5,286046998.1,N
1521371855.3,286047000.5,N
1521371875.2,286046998.2,N
1521371895.9,286046998.1,N
1521371915.7,286046998.3,N
1521371935.6,286046998.5,N
1521371955.4,286046999.2,N
1521371975.2,286047000.0,N
1521371995.1,286046999.1,N
1521371996.0,286046999.1,N
1521372015.8,286046999.6,N
1521372035.7,286046998.4,N
1521372055.5,286046999.0,N
1521372075.3,286047000.8,N
1521372095.2,286047000.5,N
1521372115.0,286047001.1,N
1521372115.9,286047001.1,N
1521372135.8,286046998.2,N
1521372155.6,286046998.5,N
1521372175.4,286047002.7,N
1521372195.3,286047000.3,N
1521372215.1,286047000.4,N
1521372235.9,286046999.7,N
1521372255.7,286047000.3,N
1521372275.5,286046999.9,N
1521372295.4,286047000.6,N
1521372315.2,286047000.5,N
1521372335.0,286047000.0,N
1521372336.0,286047000.0,N
1521372355.8,286047002.5,N
1521372375.6,286047002.2,N
1521372395.5,286047002.8,N
1521372415.3,286047000.5,N
1521372435.1,286047000.9,N
1521372455.9,286047000.9,N
1521372475.7,286046999.9,N
1521372495.6,286047000.0,N
1521372515.4,286047000.9,N
1521372535.2,286047000.5,N
1521372555.1,286047000.2,N
1521372556.0,286047000.2,N
1521372575.8,286046999.7,N
1521372595.7,286047002.6,N
1521372615.5,286047001.9,N
1521372635.3,286047003.5,Y
1521372655.2,286047004.0,P
1521372675.0,286047001.9,N
1521372675.9,286047001.9,N
1521372695.7,286047001.6,N
1521372715.6,286047004.1,Y
1521372735.4,286047001.9,P
1521372755.3,286047007.4,P
1521372775.1,286047005.7,N
1521372795.8,286047005.1,N
1521372815.7,286047013.7,Y
1521372835.5,286047007.5,P
1521372855.4,286047005.3,P
1521372875.2,286047002.7,N
1521372895.0,286046998.1,N
1521372895.9,286046998.1,N
1521372915.8,286046999.5,N
1521372935.6,286046997.8,N
1521372955.4,286046997.9,N
1521372975.3,286046995.0,N
1521372995.1,286046993.3,N
1521373015.9,286046993.6,N
1521373035.7,286046993.8,N
1521373055.5,286046996.3,N
1521373075.4,286046994.1,N
1521373095.2,286046991.9,N
1521373115.1,286046994.8,N
1521373116.0,286046994.8,N
1521373135.8,286046991.7,N
1521373155.6,286046994.6,N
1521373175.5,286046995.8,N
1521373195.3,286046993.5,N
1521373215.1,286046994.3,N
1521373235.9,286046994.8,N
1521373255.7,286046991.9,N
1521373275.6,286046992.8,N
1521373295.4,286046990.2,N
1521373315.2,286046992.4,N
1521373335.1,286046992.8,N
1521373336.0,286046992.8,N
1521373355.8,286046993.8,N
1521373375.7,286046995.2,N
1521373395.5,286046993.3,N
1521373415.3,286046994.4,N
1521373435.2,286046991.8,Y
1521373455.0,286046998.1,P
1521373455.9,286046998.1,N
1521373475.7,286046999.7,N
1521373495.6,286046999.6,N
1521373515.4,286046998.5,N
1521373535.3,286046999.4,N
1521373555.1,286046999.0,N
1521373575.8,286046996.8,N
1521373595.7,286046996.6,N
1521373615.5,286046998.5,N
1521373635.4,286046998.7,N
1521373655.2,286046998.1,N
1521373675.0,286046998.1,N
1521373675.9,286046998.1,N
1521373695.8,286046999.5,N
1521373715.6,286046999.1,N
1521373735.4,286046998.7,N
1521373755.3,286046998.6,N
1521373775.1,286046996.5,N
1521373795.9,286046998.7,N
1521373815.7,286046997.2,N
1521373835.5,286047001.2,N
1521373855.4,286046998.2,N
1521373875.2,286047000.4,N
1521373895.0,286047001.2,N
1521373895.9,286047001.2,N
1521373915.8,286047000.4,N
1521373935.6,286046998.4,N
1521373955.5,286046999.3,N
1521373975.3,286046999.3,N
1521373995.1,286046999.0,N
1521374015.9,286046996.5,N
1521374035.7,286046997.5,N
1521374055.6,286046999.0,N
1521374075.4,286046999.5,N
1521374095.2,286046998.5,N
1521374115.1,286047001.1,N
1521374116.0,286047001.1,N
1521374135.8,286047000.6,N
1521374155.6,286047000.4,N
1521374175.5,286047000.3,N
1521374195.3,286047000.0,N
1521374215.2,286047001.2,N
1521374235.9,286046999.9,N
1521374255.7,286047002.8,N
1521374275.6,286047001.1,N
1521374295.4,286047001.0,N
1521374315.2,286046998.1,N
1521374335.1,286046998.8,N
1521374336.0,286046998.8,N
1521374355.8,286046998.9,N
1521374375.7,286047000.0,N
1521374395.5,286047000.2,N
